Data start date =,9/8/1998
Data end date/time =,8/5/2022 13:00
""
""
Date/Time,LockDam_05a
,Temp-Water
UTC,F
,Inst
9/8/1998 13:00,75
9/9/1998 13:00,74
9/10/1998 13:00,74
9/11/1998 13:00,73
9/12/1998 13:00,73
9/13/1998 13:00,72
9/14/1998 13:00,72
9/15/1998 13:00,72
9/16/1998 13:00,72
9/17/1998 13:00,72
9/20/1998 13:00,73
9/21/1998 13:00,71
9/22/1998 13:00,70
9/23/1998 13:00,66
9/24/1998 13:00,65
9/25/1998 13:00,66
9/26/1998 13:00,66
9/27/1998 13:00,66
9/28/1998 13:00,67
9/29/1998 13:00,67
9/30/1998 13:00,67
10/1/1998 13:00,64
10/2/1998 13:00,61
10/3/1998 13:00,60
10/4/1998 13:00,58
10/5/1998 13:00,57
10/13/1998 13:00,54
10/14/1998 13:00,53
10/15/1998 13:00,52
10/16/1998 13:00,53
10/17/1998 13:00,53
10/18/1998 13:00,51
10/19/1998 13:00,54
10/20/1998 13:00,51
10/21/1998 13:00,51
10/22/1998 13:00,51
10/23/1998 13:00,51
10/24/1998 13:00,51
10/25/1998 14:00,51
10/26/1998 14:00,51
10/27/1998 14:00,54
10/28/1998 14:00,54
10/29/1998 14:00,54
10/30/1998 14:00,53
10/31/1998 14:00,52
11/1/1998 14:00,51
11/2/1998 14:00,51
11/3/1998 14:00,48
11/4/1998 14:00,46
11/5/1998 14:00,45
11/6/1998 14:00,44
11/7/1998 14:00,43
11/8/1998 14:00,43
11/9/1998 14:00,43
11/11/1998 14:00,42
11/12/1998 14:00,39
11/13/1998 14:00,39
11/14/1998 14:00,39
11/15/1998 14:00,39
11/16/1998 14:00,39
11/17/1998 14:00,39
11/18/1998 14:00,39
11/19/1998 14:00,39
11/20/1998 14:00,37
11/21/1998 14:00,36
11/22/1998 14:00,36
11/23/1998 14:00,36
11/24/1998 14:00,38
11/25/1998 14:00,38
11/26/1998 14:00,38
11/27/1998 14:00,38
11/28/1998 14:00,39
11/29/1998 14:00,40
11/30/1998 14:00,40
12/1/1998 14:00,39
12/2/1998 14:00,40
12/3/1998 14:00,41
12/4/1998 14:00,42
12/5/1998 14:00,42
12/6/1998 14:00,43
12/7/1998 14:00,40
12/8/1998 14:00,38
12/9/1998 14:00,38
12/10/1998 14:00,37
12/11/1998 14:00,36
12/12/1998 14:00,37
12/13/1998 14:00,37
12/14/1998 14:00,37
12/15/1998 14:00,37
12/16/1998 14:00,37
12/17/1998 14:00,38
12/18/1998 14:00,35
12/19/1998 14:00,34
12/20/1998 14:00,33
12/21/1998 14:00,30
12/23/1998 14:00,30
12/24/1998 14:00,32
12/25/1998 14:00,32
12/26/1998 14:00,32
12/27/1998 14:00,32
12/28/1998 14:00,32
12/29/1998 14:00,32
12/30/1998 14:00,32
12/31/1998 14:00,32
1/1/1999 14:00,32
1/2/1999 14:00,32
1/3/1999 14:00,32
1/4/1999 14:00,32
1/5/1999 14:00,32
1/6/1999 14:00,32
1/7/1999 14:00,32
1/8/1999 14:00,32
1/9/1999 14:00,32
1/10/1999 14:00,32
1/11/1999 14:00,32
1/12/1999 14:00,32
1/13/1999 14:00,32
1/14/1999 14:00,32
1/15/1999 14:00,32
1/16/1999 14:00,32
1/17/1999 14:00,32
1/18/1999 14:00,32
1/19/1999 14:00,30
1/20/1999 14:00,30
1/21/1999 14:00,30
1/22/1999 14:00,30
1/23/1999 14:00,30
1/24/1999 14:00,30
1/25/1999 14:00,30
1/26/1999 14:00,32
1/27/1999 14:00,32
1/28/1999 14:00,32
1/29/1999 14:00,32
1/30/1999 14:00,32
1/31/1999 14:00,32
2/1/1999 14:00,32
2/2/1999 14:00,32
2/3/1999 14:00,32
2/4/1999 14:00,32
2/5/1999 14:00,32
2/6/1999 14:00,32
2/7/1999 14:00,32
2/8/1999 14:00,32
2/9/1999 14:00,32
2/10/1999 14:00,33
2/11/1999 14:00,33
2/12/1999 14:00,33
2/13/1999 14:00,33
2/14/1999 14:00,33
2/15/1999 14:00,33
2/16/1999 14:00,33
2/17/1999 14:00,33
2/18/1999 14:00,33
2/19/1999 14:00,33
2/20/1999 14:00,33
2/21/1999 14:00,33
2/22/1999 14:00,33
2/23/1999 14:00,32
2/24/1999 14:00,32
2/25/1999 14:00,32
2/26/1999 14:00,32
2/27/1999 14:00,33
2/28/1999 14:00,33
3/1/1999 14:00,33
3/2/1999 14:00,33
3/3/1999 14:00,33
3/4/1999 14:00,33
3/5/1999 14:00,33
3/6/1999 14:00,33
3/7/1999 14:00,33
3/8/1999 14:00,33
3/9/1999 14:00,31
3/10/1999 14:00,31
3/11/1999 14:00,33
3/12/1999 14:00,34
3/13/1999 14:00,35
3/14/1999 14:00,36
3/15/1999 14:00,37
3/16/1999 14:00,37
3/17/1999 14:00,37
3/18/1999 14:00,37
3/19/1999 14:00,37
3/20/1999 14:00,38
3/21/1999 14:00,38
3/22/1999 14:00,38
3/23/1999 14:00,38
3/24/1999 14:00,38
3/25/1999 14:00,38
3/26/1999 14:00,38
3/27/1999 14:00,38
3/28/1999 14:00,39
3/29/1999 14:00,39
3/30/1999 14:00,41
3/31/1999 14:00,43
4/1/1999 14:00,45
4/2/1999 14:00,47
4/3/1999 14:00,47
4/4/1999 13:00,47
4/5/1999 13:00,47
4/6/1999 13:00,46
4/7/1999 13:00,45
4/8/1999 13:00,46
4/9/1999 13:00,47
4/10/1999 13:00,46
4/11/1999 13:00,46
4/12/1999 13:00,44
4/13/1999 13:00,46
4/14/1999 13:00,48
4/15/1999 13:00,49
4/16/1999 13:00,47
4/17/1999 13:00,47
4/18/1999 13:00,47
4/19/1999 13:00,47
4/20/1999 13:00,47
4/21/1999 13:00,47
4/22/1999 13:00,47
4/23/1999 13:00,47
4/24/1999 13:00,47
4/25/1999 13:00,50
4/26/1999 13:00,52
4/27/1999 13:00,52
4/28/1999 13:00,49
4/29/1999 13:00,51
4/30/1999 13:00,52
5/1/1999 13:00,55
5/2/1999 13:00,57
5/3/1999 13:00,57
5/4/1999 13:00,58
5/5/1999 13:00,59
5/6/1999 13:00,58
5/7/1999 13:00,58
5/8/1999 13:00,57
5/9/1999 13:00,55
5/10/1999 13:00,59
5/11/1999 13:00,58
5/12/1999 13:00,59
5/13/1999 13:00,58
5/14/1999 13:00,56
5/15/1999 13:00,56
5/16/1999 13:00,56
5/17/1999 13:00,57
5/18/1999 13:00,64
5/19/1999 13:00,63
5/20/1999 13:00,63
5/21/1999 13:00,63
5/22/1999 13:00,63
5/23/1999 13:00,63
5/24/1999 13:00,59
5/25/1999 13:00,59
5/26/1999 13:00,58
5/27/1999 13:00,58
5/28/1999 13:00,58
5/29/1999 13:00,60
5/30/1999 13:00,62
5/31/1999 13:00,64
6/1/1999 13:00,64
6/2/1999 13:00,63
6/3/1999 13:00,63
6/4/1999 13:00,63
6/5/1999 13:00,63
6/6/1999 13:00,67
6/7/1999 13:00,70
6/8/1999 13:00,70
6/9/1999 13:00,70
6/10/1999 13:00,72
6/11/1999 13:00,72
6/12/1999 13:00,70
6/13/1999 13:00,71
6/14/1999 13:00,71
6/15/1999 13:00,70
6/16/1999 13:00,70
6/17/1999 13:00,68
6/18/1999 13:00,70
6/19/1999 13:00,70
6/20/1999 13:00,70
6/21/1999 13:00,68
6/22/1999 13:00,70
6/23/1999 13:00,70
6/24/1999 13:00,70
6/25/1999 13:00,70
6/26/1999 13:00,72
6/27/1999 13:00,75
6/28/1999 13:00,73
6/29/1999 13:00,73
6/30/1999 13:00,73
7/1/1999 13:00,73
7/2/1999 13:00,72
7/3/1999 13:00,71
7/4/1999 13:00,73
7/5/1999 13:00,76
7/6/1999 13:00,78
7/7/1999 13:00,78
7/8/1999 13:00,78
7/9/1999 13:00,78
7/10/1999 13:00,74
7/11/1999 13:00,74
7/12/1999 13:00,74
7/13/1999 13:00,73
7/14/1999 13:00,74
7/15/1999 13:00,77
7/16/1999 13:00,83
7/17/1999 13:00,83
7/18/1999 13:00,81
7/19/1999 13:00,78
7/20/1999 13:00,77
7/21/1999 13:00,78
7/22/1999 13:00,78
7/23/1999 13:00,79
7/24/1999 13:00,80
7/25/1999 13:00,80
7/26/1999 13:00,85
7/27/1999 13:00,80
7/28/1999 13:00,80
7/29/1999 13:00,81
7/30/1999 13:00,84
7/31/1999 13:00,84
8/1/1999 13:00,80
8/2/1999 13:00,80
8/3/1999 13:00,80
8/4/1999 13:00,80
8/5/1999 13:00,80
8/6/1999 13:00,80
8/7/1999 13:00,80
8/8/1999 13:00,80
8/9/1999 13:00,80
8/10/1999 13:00,73
8/11/1999 13:00,76
8/12/1999 13:00,77
8/13/1999 13:00,76
8/14/1999 13:00,75
8/15/1999 13:00,75
8/16/1999 13:00,72
8/18/1999 13:00,73
8/19/1999 13:00,72
8/20/1999 13:00,73
8/21/1999 13:00,73
8/22/1999 13:00,72
8/23/1999 13:00,71
8/24/1999 13:00,70
8/25/1999 13:00,70
8/26/1999 13:00,72
8/27/1999 13:00,73
8/28/1999 13:00,73
8/29/1999 13:00,74
8/30/1999 13:00,73
8/31/1999 13:00,70
9/1/1999 13:00,70
9/2/1999 13:00,70
9/3/1999 13:00,68
9/4/1999 13:00,70
9/5/1999 13:00,74
9/6/1999 13:00,71
9/7/1999 13:00,71
9/8/1999 13:00,71
9/9/1999 13:00,70
9/10/1999 13:00,70
9/11/1999 13:00,69
9/12/1999 13:00,69
9/13/1999 13:00,68
9/14/1999 13:00,63
9/15/1999 13:00,62
9/16/1999 13:00,62
9/17/1999 13:00,63
9/18/1999 13:00,63
9/19/1999 13:00,63
9/20/1999 13:00,62
9/21/1999 13:00,60
9/22/1999 13:00,60
9/23/1999 13:00,60
9/24/1999 13:00,60
9/25/1999 13:00,61
9/26/1999 13:00,61
9/27/1999 13:00,61
9/28/1999 13:00,60
9/29/1999 13:00,60
9/30/1999 13:00,59
10/1/1999 13:00,59
10/2/1999 13:00,59
10/3/1999 13:00,57
10/4/1999 13:00,51
10/5/1999 13:00,52
10/6/1999 13:00,53
10/7/1999 13:00,53
10/8/1999 13:00,54
10/9/1999 13:00,54
10/10/1999 13:00,55
10/11/1999 13:00,56
10/12/1999 13:00,56
10/13/1999 13:00,56
10/14/1999 13:00,55
10/15/1999 13:00,55
10/16/1999 13:00,55
10/17/1999 13:00,54
10/18/1999 13:00,50
10/19/1999 13:00,49
10/20/1999 13:00,47
10/21/1999 13:00,47
10/22/1999 13:00,48
10/23/1999 13:00,44
10/24/1999 13:00,43
10/25/1999 13:00,43
10/26/1999 13:00,44
10/27/1999 13:00,44
10/28/1999 13:00,45
10/29/1999 13:00,46
10/30/1999 13:00,48
10/31/1999 14:00,48
11/1/1999 14:00,49
11/2/1999 14:00,46
11/3/1999 14:00,43
11/4/1999 14:00,42
11/5/1999 14:00,42
11/6/1999 14:00,42
11/7/1999 14:00,43
11/8/1999 14:00,43
11/9/1999 14:00,44
11/10/1999 14:00,46
11/11/1999 14:00,45
11/12/1999 14:00,43
11/13/1999 14:00,41
11/14/1999 14:00,43
11/15/1999 14:00,41
11/16/1999 14:00,39
11/17/1999 14:00,39
11/18/1999 14:00,37
11/19/1999 14:00,40
11/20/1999 14:00,38
11/21/1999 14:00,37
11/22/1999 14:00,37
11/23/1999 14:00,38
11/24/1999 14:00,38
11/25/1999 14:00,38
11/26/1999 14:00,38
11/27/1999 14:00,38
11/28/1999 14:00,38
11/29/1999 14:00,38
11/30/1999 14:00,36
12/1/1999 14:00,35
12/2/1999 14:00,36
12/3/1999 14:00,37
12/4/1999 14:00,38
12/5/1999 14:00,38
12/6/1999 14:00,37
12/7/1999 14:00,36
12/8/1999 14:00,36
12/9/1999 14:00,35
12/10/1999 14:00,35
12/11/1999 14:00,34
12/12/1999 14:00,34
12/13/1999 14:00,34
12/14/1999 14:00,34
12/15/1999 14:00,33
12/16/1999 14:00,33
12/17/1999 14:00,33
12/19/1999 14:00,32
12/21/1999 14:00,32
12/22/1999 14:00,33
12/23/1999 14:00,33
12/24/1999 14:00,33
12/25/1999 14:00,33
12/26/1999 14:00,33
12/27/1999 14:00,33
12/28/1999 14:00,33
12/29/1999 14:00,33
12/30/1999 14:00,33
12/31/1999 14:00,33
1/2/2000 14:00,33
1/3/2000 14:00,33
1/11/2000 14:00,33
1/12/2000 14:00,33
1/13/2000 14:00,33
1/14/2000 14:00,33
1/15/2000 14:00,33
1/16/2000 14:00,33
1/17/2000 14:00,33
1/18/2000 14:00,33
1/19/2000 14:00,32
1/20/2000 14:00,32
1/21/2000 14:00,32
1/22/2000 14:00,32
1/23/2000 14:00,32
1/24/2000 14:00,32
1/25/2000 14:00,32
1/26/2000 14:00,32
1/27/2000 14:00,32
1/28/2000 14:00,32
1/29/2000 14:00,32
1/30/2000 14:00,32
1/31/2000 14:00,32
2/1/2000 14:00,33
2/2/2000 14:00,33
2/3/2000 14:00,33
2/4/2000 14:00,33
2/5/2000 14:00,33
2/6/2000 14:00,33
2/7/2000 14:00,33
2/9/2000 14:00,32
2/10/2000 14:00,32
2/11/2000 14:00,32
2/12/2000 14:00,32
2/13/2000 14:00,32
2/15/2000 14:00,33
2/16/2000 14:00,33
2/17/2000 14:00,33
2/18/2000 14:00,33
2/19/2000 14:00,33
2/20/2000 14:00,33
2/21/2000 14:00,33
2/22/2000 14:00,33
2/23/2000 14:00,33
2/24/2000 14:00,33
2/25/2000 14:00,33
2/26/2000 14:00,33
2/27/2000 14:00,33
2/28/2000 14:00,33
2/29/2000 14:00,34
3/1/2000 14:00,34
3/2/2000 14:00,34
3/3/2000 14:00,34
3/4/2000 14:00,34
3/5/2000 14:00,35
3/6/2000 14:00,36
3/7/2000 14:00,36
3/8/2000 14:00,36
3/9/2000 14:00,45
3/10/2000 14:00,45
3/11/2000 14:00,45
3/12/2000 14:00,45
3/13/2000 14:00,45
3/14/2000 14:00,45
3/15/2000 14:00,48
3/16/2000 14:00,42
3/17/2000 14:00,44
3/18/2000 14:00,44
3/19/2000 14:00,40
3/20/2000 14:00,45
3/21/2000 14:00,38
3/22/2000 14:00,38
3/23/2000 14:00,38
3/24/2000 14:00,38
3/25/2000 14:00,38
3/26/2000 14:00,39
3/27/2000 14:00,40
3/28/2000 14:00,40
3/29/2000 14:00,40
3/30/2000 14:00,40
3/31/2000 14:00,40
4/1/2000 14:00,40
4/2/2000 13:00,40
4/3/2000 13:00,40
4/4/2000 13:00,40
4/5/2000 13:00,41
4/6/2000 13:00,42
4/7/2000 13:00,42
4/8/2000 13:00,43
4/9/2000 13:00,43
4/10/2000 13:00,43
4/11/2000 13:00,43
4/12/2000 13:00,43
4/13/2000 13:00,43
4/14/2000 13:00,43
4/15/2000 13:00,44
4/16/2000 13:00,44
4/17/2000 13:00,44
4/18/2000 13:00,44
4/19/2000 13:00,45
4/20/2000 13:00,48
4/21/2000 13:00,48
4/22/2000 13:00,49
4/23/2000 13:00,52
4/24/2000 13:00,53
4/25/2000 13:00,53
4/26/2000 13:00,53
4/27/2000 13:00,53
4/28/2000 13:00,55
4/29/2000 13:00,55
4/30/2000 13:00,56
5/1/2000 13:00,57
5/2/2000 13:00,57
5/3/2000 13:00,57
5/4/2000 13:00,59
5/5/2000 13:00,62
5/6/2000 13:00,63
5/7/2000 13:00,65
5/8/2000 13:00,66
5/9/2000 13:00,66
5/10/2000 13:00,64
5/11/2000 13:00,63
5/12/2000 13:00,61
5/13/2000 13:00,61
5/14/2000 13:00,59
5/15/2000 13:00,58
5/16/2000 13:00,59
5/17/2000 13:00,60
5/18/2000 13:00,60
5/19/2000 13:00,59
5/20/2000 13:00,60
5/21/2000 13:00,61
5/22/2000 13:00,62
5/23/2000 13:00,62
5/24/2000 13:00,62
5/25/2000 13:00,63
5/26/2000 13:00,63
5/27/2000 13:00,62
5/28/2000 13:00,60
5/29/2000 13:00,60
5/30/2000 13:00,62
5/31/2000 13:00,63
6/1/2000 13:00,64
6/2/2000 13:00,64
6/3/2000 13:00,64
6/4/2000 13:00,65
6/5/2000 13:00,63
6/6/2000 13:00,63
6/7/2000 13:00,65
6/8/2000 13:00,65
6/9/2000 13:00,68
6/10/2000 13:00,70
6/11/2000 13:00,70
6/12/2000 13:00,71
6/13/2000 13:00,70
6/14/2000 13:00,69
6/15/2000 13:00,69
6/16/2000 13:00,68
6/17/2000 13:00,67
6/18/2000 13:00,68
6/19/2000 13:00,68
6/20/2000 13:00,70
6/21/2000 13:00,71
6/22/2000 13:00,70
6/23/2000 13:00,70
6/24/2000 13:00,70
6/25/2000 13:00,70
6/26/2000 13:00,72
6/27/2000 13:00,70
6/28/2000 13:00,73
6/30/2000 13:00,72
7/1/2000 13:00,73
7/2/2000 13:00,74
7/3/2000 13:00,73
7/4/2000 13:00,74
7/5/2000 13:00,74
7/6/2000 13:00,75
7/7/2000 13:00,75
7/8/2000 13:00,75
7/9/2000 13:00,76
7/10/2000 13:00,77
7/11/2000 13:00,78
7/12/2000 13:00,78
7/13/2000 13:00,77
7/14/2000 13:00,78
7/15/2000 13:00,78
7/16/2000 13:00,79
7/17/2000 13:00,79
7/18/2000 13:00,78
7/19/2000 13:00,75
7/20/2000 13:00,75
7/21/2000 13:00,74
7/22/2000 13:00,74
7/23/2000 13:00,74
7/24/2000 13:00,75
7/25/2000 13:00,76
7/26/2000 13:00,75
7/27/2000 13:00,75
7/28/2000 13:00,75
7/29/2000 13:00,75
7/30/2000 13:00,75
7/31/2000 13:00,76
8/1/2000 13:00,77
8/2/2000 13:00,77
8/3/2000 13:00,77
8/4/2000 13:00,77
8/5/2000 13:00,77
8/6/2000 13:00,76
8/7/2000 13:00,75
8/8/2000 13:00,75
8/9/2000 13:00,77
8/10/2000 13:00,78
8/11/2000 13:00,78
8/12/2000 13:00,79
8/13/2000 13:00,79
8/14/2000 13:00,79
8/15/2000 13:00,79
8/16/2000 13:00,79
8/17/2000 13:00,77
8/18/2000 13:00,75
8/19/2000 13:00,75
8/20/2000 13:00,74
8/21/2000 13:00,74
8/22/2000 13:00,73
8/23/2000 13:00,73
8/24/2000 13:00,74
8/25/2000 13:00,74
8/26/2000 13:00,74
8/27/2000 13:00,74
8/28/2000 13:00,74
8/29/2000 13:00,75
8/30/2000 13:00,74
8/31/2000 13:00,74
9/1/2000 13:00,75
9/2/2000 13:00,75
9/3/2000 13:00,74
9/4/2000 13:00,74
9/5/2000 13:00,73
9/6/2000 13:00,73
9/7/2000 13:00,70
9/8/2000 13:00,70
9/9/2000 13:00,70
9/10/2000 13:00,71
9/11/2000 13:00,72
9/12/2000 13:00,73
9/13/2000 13:00,72
9/14/2000 13:00,71
9/15/2000 13:00,70
9/16/2000 13:00,69
9/17/2000 13:00,68
9/18/2000 13:00,68
9/19/2000 13:00,68
9/20/2000 13:00,68
9/21/2000 13:00,66
9/22/2000 13:00,65
9/23/2000 13:00,63
9/24/2000 13:00,62
9/25/2000 13:00,60
9/26/2000 13:00,60
9/27/2000 13:00,60
9/28/2000 13:00,60
9/29/2000 13:00,60
9/30/2000 13:00,61
10/1/2000 13:00,61
10/2/2000 13:00,62
10/3/2000 13:00,62
10/4/2000 13:00,61
10/5/2000 13:00,61
10/6/2000 13:00,59
10/7/2000 13:00,57
10/8/2000 13:00,55
10/9/2000 13:00,53
10/10/2000 13:00,52
10/11/2000 13:00,52
10/12/2000 13:00,52
10/13/2000 13:00,52
10/14/2000 13:00,54
10/15/2000 13:00,56
10/16/2000 13:00,56
10/17/2000 13:00,56
10/18/2000 13:00,56
10/19/2000 13:00,56
10/20/2000 13:00,56
10/21/2000 13:00,56
10/22/2000 13:00,56
10/23/2000 13:00,56
10/24/2000 13:00,56
10/25/2000 13:00,56
10/26/2000 13:00,58
10/27/2000 13:00,58
10/28/2000 13:00,58
10/29/2000 14:00,56
10/30/2000 14:00,55
10/31/2000 14:00,54
11/1/2000 14:00,54
11/2/2000 14:00,55
11/3/2000 14:00,55
11/4/2000 14:00,53
11/5/2000 14:00,53
11/6/2000 14:00,52
11/7/2000 14:00,51
11/8/2000 14:00,50
11/9/2000 14:00,48
11/10/2000 14:00,46
11/11/2000 14:00,45
11/12/2000 14:00,45
11/13/2000 14:00,45
11/14/2000 14:00,44
11/15/2000 14:00,44
11/16/2000 14:00,42
11/17/2000 14:00,41
11/18/2000 14:00,39
11/19/2000 14:00,38
11/20/2000 14:00,37
11/21/2000 14:00,35
11/22/2000 14:00,34
11/23/2000 14:00,34
11/24/2000 14:00,33
11/25/2000 14:00,34
11/26/2000 14:00,34
11/27/2000 14:00,34
11/28/2000 14:00,34
11/29/2000 14:00,34
11/30/2000 14:00,34
12/1/2000 14:00,35
12/2/2000 14:00,34
12/3/2000 14:00,33
12/4/2000 14:00,33
12/5/2000 14:00,32
12/6/2000 14:00,32
12/7/2000 14:00,32
12/8/2000 14:00,32
12/9/2000 14:00,32
12/10/2000 14:00,32
12/11/2000 14:00,32
12/12/2000 14:00,32
12/13/2000 14:00,31
12/14/2000 14:00,31
12/15/2000 14:00,31
12/16/2000 14:00,32
12/17/2000 14:00,32
12/18/2000 14:00,32
12/19/2000 14:00,31
12/20/2000 14:00,31
12/21/2000 14:00,31
12/23/2000 14:00,31
12/24/2000 14:00,31
12/25/2000 14:00,31
12/26/2000 14:00,32
12/27/2000 14:00,32
12/28/2000 14:00,32
12/29/2000 14:00,32
12/30/2000 14:00,32
12/31/2000 14:00,32
1/1/2001 14:00,32
1/2/2001 14:00,32
1/3/2001 14:00,32
1/4/2001 14:00,32
1/5/2001 14:00,32
1/6/2001 14:00,32
1/7/2001 14:00,32
1/8/2001 14:00,32
1/9/2001 14:00,32
1/10/2001 14:00,32
1/11/2001 14:00,32
1/12/2001 14:00,32
1/13/2001 14:00,32
1/14/2001 14:00,32
1/15/2001 14:00,32
1/16/2001 14:00,32
1/17/2001 14:00,32
1/18/2001 14:00,32
1/19/2001 14:00,32
1/20/2001 14:00,32
1/21/2001 14:00,32
1/22/2001 14:00,32
1/23/2001 14:00,32
1/24/2001 14:00,32
1/25/2001 14:00,32
1/26/2001 14:00,32
1/27/2001 14:00,32
1/28/2001 14:00,32
1/29/2001 14:00,32
1/30/2001 14:00,32
1/31/2001 14:00,32
2/1/2001 14:00,32
2/2/2001 14:00,32
2/3/2001 14:00,32
2/4/2001 14:00,32
2/5/2001 14:00,32
2/6/2001 14:00,32
2/7/2001 14:00,32
2/8/2001 14:00,32
2/9/2001 14:00,32
2/10/2001 14:00,32
2/11/2001 14:00,32
2/12/2001 14:00,32
2/13/2001 14:00,32
2/14/2001 14:00,32
2/15/2001 14:00,32
2/16/2001 14:00,32
2/17/2001 14:00,32
2/18/2001 14:00,32
2/19/2001 14:00,32
2/20/2001 14:00,32
2/21/2001 14:00,32
2/22/2001 14:00,32
2/23/2001 14:00,32
2/24/2001 14:00,32
2/25/2001 14:00,32
2/26/2001 14:00,32
2/27/2001 14:00,32
2/28/2001 14:00,32
3/1/2001 14:00,32
3/2/2001 14:00,32
3/3/2001 14:00,32
3/4/2001 14:00,32
3/5/2001 14:00,32
3/6/2001 14:00,32
3/7/2001 14:00,32
3/8/2001 14:00,32
3/9/2001 14:00,32
3/10/2001 14:00,32
3/11/2001 14:00,32
3/12/2001 14:00,32
3/13/2001 14:00,32
3/14/2001 14:00,32
3/15/2001 14:00,32
3/16/2001 14:00,32
3/17/2001 14:00,32
3/18/2001 14:00,32
3/19/2001 14:00,32
3/20/2001 14:00,32
3/21/2001 14:00,32
3/22/2001 14:00,32
3/23/2001 14:00,32
3/24/2001 14:00,32
3/25/2001 14:00,32
3/26/2001 14:00,32
3/27/2001 14:00,32
3/28/2001 14:00,32
3/29/2001 14:00,32
3/30/2001 14:00,32
3/31/2001 14:00,32
4/1/2001 13:00,32
4/2/2001 13:00,32
4/3/2001 13:00,35
4/4/2001 13:00,35
4/5/2001 13:00,38
4/6/2001 13:00,38
4/7/2001 13:00,40
4/8/2001 13:00,40
4/9/2001 13:00,40
4/10/2001 13:00,40
4/11/2001 13:00,42
4/12/2001 13:00,42
4/13/2001 13:00,44
4/14/2001 13:00,44
4/15/2001 13:00,46
4/16/2001 13:00,46
4/17/2001 13:00,45
4/18/2001 13:00,45
4/19/2001 13:00,45
4/20/2001 13:00,45
4/21/2001 13:00,45
4/22/2001 13:00,45
4/23/2001 13:00,45
4/24/2001 13:00,47
4/25/2001 13:00,47
4/26/2001 13:00,50
4/27/2001 13:00,50
4/28/2001 13:00,51
4/29/2001 13:00,51
4/30/2001 13:00,53
5/1/2001 13:00,54
5/2/2001 13:00,56
5/3/2001 13:00,55
5/4/2001 13:00,55
5/5/2001 13:00,57
5/6/2001 13:00,56
5/7/2001 13:00,58
5/8/2001 13:00,56
5/9/2001 13:00,56
5/10/2001 13:00,60
5/11/2001 13:00,58
5/12/2001 13:00,59
5/13/2001 13:00,60
5/14/2001 13:00,60
5/15/2001 13:00,60
5/16/2001 13:00,60
5/17/2001 13:00,60
5/18/2001 13:00,60
5/19/2001 13:00,62
5/20/2001 13:00,62
5/21/2001 13:00,63
5/22/2001 13:00,63
5/23/2001 13:00,62
5/24/2001 13:00,62
5/25/2001 13:00,62
5/26/2001 13:00,62
5/27/2001 13:00,62
5/28/2001 13:00,62
5/29/2001 13:00,62
5/30/2001 13:00,63
5/31/2001 13:00,63
6/1/2001 13:00,63
6/2/2001 13:00,63
6/3/2001 13:00,63
6/4/2001 13:00,63
6/5/2001 13:00,63
6/6/2001 13:00,61
6/7/2001 13:00,61
6/8/2001 13:00,63
6/9/2001 13:00,65
6/10/2001 13:00,67
6/11/2001 13:00,67
6/12/2001 13:00,68
6/13/2001 13:00,68
6/14/2001 13:00,69
6/15/2001 13:00,69
6/16/2001 13:00,68
6/18/2001 13:00,69
6/19/2001 13:00,71
6/20/2001 13:00,71
6/21/2001 13:00,72
6/22/2001 13:00,71
6/23/2001 13:00,71
6/24/2001 13:00,72
6/25/2001 13:00,72
6/26/2001 13:00,73
6/27/2001 13:00,75
6/28/2001 13:00,75
6/29/2001 13:00,76
6/30/2001 13:00,76
7/1/2001 13:00,77
7/2/2001 13:00,74
7/3/2001 13:00,72
7/4/2001 13:00,75
7/5/2001 13:00,75
7/6/2001 13:00,75
7/7/2001 13:00,75
7/8/2001 13:00,75
7/9/2001 13:00,75
7/10/2001 13:00,79
7/11/2001 13:00,79
7/12/2001 13:00,78
7/13/2001 13:00,77
7/14/2001 13:00,79
7/15/2001 13:00,80
7/16/2001 13:00,80
7/17/2001 13:00,80
7/18/2001 13:00,80
7/19/2001 13:00,81
7/20/2001 13:00,81
7/21/2001 13:00,81
7/22/2001 13:00,82
7/23/2001 13:00,81
7/24/2001 13:00,81
7/25/2001 13:00,80
7/26/2001 13:00,79
7/27/2001 13:00,79
7/28/2001 13:00,77
7/29/2001 13:00,77
7/30/2001 13:00,79
7/31/2001 13:00,80
8/1/2001 13:00,82
8/2/2001 13:00,82
8/3/2001 13:00,82
8/4/2001 13:00,82
8/5/2001 13:00,82
8/6/2001 13:00,82
8/7/2001 13:00,82
8/8/2001 13:00,84
8/9/2001 13:00,84
8/10/2001 13:00,81
8/11/2001 13:00,79
8/12/2001 13:00,80
8/13/2001 13:00,79
8/14/2001 13:00,78
8/15/2001 13:00,77
8/16/2001 13:00,75
8/17/2001 13:00,74
8/18/2001 13:00,74
8/19/2001 13:00,74
8/20/2001 13:00,74
8/21/2001 13:00,75
8/22/2001 13:00,73
8/23/2001 13:00,75
8/24/2001 13:00,75
8/25/2001 13:00,77
8/26/2001 13:00,77
8/27/2001 13:00,76
8/28/2001 13:00,76
8/29/2001 13:00,76
8/30/2001 13:00,76
8/31/2001 13:00,75
9/1/2001 13:00,73
9/2/2001 13:00,72
9/3/2001 13:00,73
9/4/2001 13:00,74
9/5/2001 13:00,74
9/6/2001 13:00,74
9/7/2001 13:00,74
9/8/2001 13:00,74
9/9/2001 13:00,72
9/10/2001 13:00,69
9/11/2001 13:00,68
9/12/2001 13:00,69
9/13/2001 13:00,69
9/14/2001 13:00,68
9/15/2001 13:00,67
9/16/2001 13:00,67
9/17/2001 13:00,66
9/18/2001 13:00,65
9/19/2001 13:00,65
9/20/2001 13:00,65
9/21/2001 13:00,65
9/22/2001 13:00,66
9/23/2001 13:00,65
9/25/2001 13:00,60
9/26/2001 13:00,60
9/27/2001 13:00,60
9/28/2001 13:00,60
9/29/2001 13:00,61
9/30/2001 13:00,61
10/1/2001 13:00,60
10/2/2001 13:00,62
10/3/2001 13:00,62
10/4/2001 13:00,61
10/5/2001 13:00,59
10/6/2001 13:00,57
10/7/2001 13:00,54
10/8/2001 13:00,53
10/9/2001 13:00,53
10/10/2001 13:00,53
10/11/2001 13:00,54
10/12/2001 13:00,55
10/13/2001 13:00,56
10/14/2001 13:00,55
10/15/2001 13:00,54
10/16/2001 13:00,52
10/17/2001 13:00,50
10/18/2001 13:00,50
10/19/2001 13:00,49
10/20/2001 13:00,50
10/21/2001 13:00,49
10/22/2001 13:00,50
10/23/2001 13:00,51
10/24/2001 13:00,52
10/25/2001 13:00,50
10/26/2001 13:00,45
10/27/2001 13:00,43
10/28/2001 14:00,43
10/29/2001 14:00,44
10/30/2001 14:00,45
10/31/2001 14:00,45
11/1/2001 14:00,47
11/2/2001 14:00,49
11/5/2001 14:00,48
11/6/2001 14:00,48
11/7/2001 14:00,49
11/8/2001 14:00,50
11/9/2001 14:00,48
11/10/2001 14:00,47
11/11/2001 14:00,46
11/12/2001 14:00,46
11/13/2001 14:00,47
11/14/2001 14:00,47
11/15/2001 14:00,49
11/16/2001 14:00,50
11/17/2001 14:00,50
11/18/2001 14:00,51
11/19/2001 14:00,50
11/20/2001 14:00,46
11/21/2001 14:00,45
11/22/2001 14:00,45
11/23/2001 14:00,45
11/24/2001 14:00,46
11/25/2001 14:00,47
11/26/2001 14:00,45
11/27/2001 14:00,43
11/28/2001 14:00,43
11/29/2001 14:00,42
11/30/2001 14:00,41
12/1/2001 14:00,41
12/2/2001 14:00,40
12/3/2001 14:00,40
12/5/2001 14:00,42
12/6/2001 14:00,43
12/7/2001 14:00,42
12/8/2001 14:00,41
12/9/2001 14:00,37
12/10/2001 14:00,37
12/11/2001 14:00,37
12/12/2001 14:00,37
12/13/2001 14:00,36
12/14/2001 14:00,36
12/15/2001 14:00,36
12/16/2001 14:00,37
12/17/2001 14:00,38
12/18/2001 14:00,37
12/19/2001 14:00,37
12/20/2001 14:00,35
12/21/2001 14:00,35
12/22/2001 14:00,34
12/23/2001 14:00,33
12/24/2001 14:00,32
12/25/2001 14:00,32
12/26/2001 14:00,32
12/27/2001 14:00,32
12/28/2001 14:00,32
12/29/2001 14:00,32
12/30/2001 14:00,32
12/31/2001 14:00,32
1/1/2002 14:00,32
1/2/2002 14:00,32
1/3/2002 14:00,32
1/4/2002 14:00,32
1/5/2002 14:00,32
1/6/2002 14:00,32
1/7/2002 14:00,32
1/8/2002 14:00,32
1/9/2002 14:00,32
1/10/2002 14:00,32
1/11/2002 14:00,32
1/12/2002 14:00,32
1/13/2002 14:00,32